DW6561 Weather Reports


Display with metric or nautical units.
time (UTC)temp
F
wind
direction
speed
MPH
gust
MPH
rain 1hr
in
rain 24hr
in
rain mn
in
humidity
%
barometer
mb
20260831033018 68 96 0.0 0.0 0.00 0.00 0.00 38 1015.6
20260831031515 68 96 0.0 0.0 0.00 0.00 0.00 39 1015.5
20260831030025 69 96 0.0 0.0 0.00 0.00 0.00 39 1015.5
20260831024504 70 96 0.0 0.0 0.00 0.00 0.00 39 1015.3
20260831023009 71 96 0.0 0.0 0.00 0.00 0.00 36 1015.3
20260831021518 72 96 0.0 0.0 0.00 0.00 0.00 33 1015.4
20260831020023 73 96 0.0 0.0 0.00 0.00 0.00 32 1015.3
20260831014530 74 94 0.0 0.0 0.00 0.00 0.00 33 1015.3
20260831013008 75 84 0.0 0.0 0.00 0.00 0.00 33 1015.3
20260831011512 75 84 0.0 0.0 0.00 0.00 0.00 32 1015.3
20260831010020 76 85 0.0 0.0 0.00 0.00 0.00 31 1015.4
20260831004527 76 84 0.0 1.0 0.00 0.00 0.00 31 1015.4
20260831003024 77 151 0.0 2.0 0.00 0.00 0.00 31 1015.4
20260831001510 77 151 0.0 1.0 0.00 0.00 0.00 32 1015.4
20260831000018 77 143 0.0 1.0 0.00 0.00 0.00 31 1015.5
20260830234504 77 155 0.0 2.0 0.00 0.00 0.00 30 1015.7
20260830233007 77 143 0.0 2.0 0.00 0.00 0.00 29 1015.9
20260830231512 77 184 0.0 2.0 0.00 0.00 0.00 28 1016.0
20260830230004 77 173 0.0 2.0 0.00 0.00 0.00 34 1016.1
20260830224502 77 159 0.0 5.0 0.00 0.00 0.00 30 1016.3
20260830223003 77 159 0.0 3.0 0.00 0.00 0.00 31 1016.6
20260830221503 76 177 2.0 7.0 0.00 0.00 0.00 29 1016.7
20260830220008 76 189 0.0 7.0 0.00 0.00 0.00 32 1017.0
20260830214504 75 163 2.0 6.0 0.00 0.00 0.00 32 1017.3
20260830213003 75 144 2.0 5.0 0.00 0.00 0.00 33 1017.5
20260830211507 74 160 2.0 9.0 0.00 0.00 0.00 33 1017.5
20260830210007 73 164 0.0 9.0 0.00 0.00 0.00 35 1017.6
20260830204504 73 165 3.0 10.0 0.00 0.00 0.00 35 1017.8
20260830203003 72 173 4.0 9.0 0.00 0.00 0.00 35 1018.1
20260830201503 72 206 2.0 7.0 0.00 0.00 0.00 39 1018.1
20260830200011 71 188 5.0 10.0 0.00 0.00 0.00 37 1018.1
20260830194513 70 180 2.0 10.0 0.00 0.00 0.00 41 1018.3
20260830193010 69 200 5.0 13.0 0.00 0.00 0.00 38 1018.4
20260830191523 69 164 2.0 8.0 0.00 0.00 0.00 41 1018.4
20260830190003 68 267 3.0 13.0 0.00 0.00 0.00 44 1018.4
20260830184515 67 174 5.0 12.0 0.00 0.00 0.00 46 1018.6
20260830183019 67 183 3.0 12.0 0.00 0.00 0.00 47 1018.7
20260830181518 67 143 6.0 12.0 0.00 0.00 0.00 48 1018.8
20260830180006 66 151 5.0 14.0 0.00 0.00 0.00 50 1018.8
20260830174512 65 152 5.0 11.0 0.00 0.00 0.00 51 1018.7
20260830173010 63 252 5.0 12.0 0.00 0.00 0.00 53 1018.8
20260830171523 63 159 7.0 15.0 0.00 0.00 0.00 54 1018.7
20260830170026 62 178 8.0 16.0 0.00 0.00 0.00 54 1018.8
20260830164511 61 114 7.0 16.0 0.00 0.00 0.00 57 1018.8
20260830163032 61 176 9.0 18.0 0.00 0.00 0.00 57 1019.0
20260830161514 60 187 8.0 19.0 0.00 0.00 0.00 59 1019.0
20260830160015 60 183 6.0 15.0 0.00 0.00 0.00 60 1018.9
20260830154534 59 198 5.0 15.0 0.00 0.00 0.00 62 1018.8
20260830153012 58 184 7.0 20.0 0.00 0.00 0.00 64 1018.8
20260830151520 57 219 6.0 14.0 0.00 0.00 0.00 65 1019.0
20260830150026 57 121 6.0 14.0 0.00 0.00 0.00 66 1018.7
20260830144512 56 179 6.0 14.0 0.00 0.00 0.00 67 1018.7
20260830143012 55 153 5.0 14.0 0.00 0.00 0.00 68 1018.6
20260830141517 55 157 5.0 10.0 0.00 0.00 0.00 70 1018.6
20260830140003 54 134 3.0 10.0 0.00 0.00 0.00 70 1018.5
20260830134504 53 158 5.0 11.0 0.00 0.00 0.00 71 1018.5
20260830133004 53 196 4.0 11.0 0.00 0.00 0.00 71 1018.5
20260830131524 53 140 4.0 9.0 0.00 0.00 0.00 71 1018.4
20260830130023 53 177 4.0 10.0 0.00 0.00 0.00 71 1018.3
20260830124505 53 183 5.0 10.0 0.00 0.00 0.00 70 1018.3
20260830123010 54 183 4.0 9.0 0.00 0.00 0.00 69 1018.3
20260830121511 54 150 4.0 10.0 0.00 0.00 0.00 69 1018.3
20260830120008 54 171 4.0 9.0 0.00 0.00 0.00 70 1018.1
20260830114532 54 186 3.0 8.0 0.00 0.00 0.00 68 1018.2
20260830113004 54 159 4.0 10.0 0.00 0.00 0.00 68 1018.2
20260830111512 54 161 4.0 9.0 0.00 0.00 0.00 69 1018.2
20260830110018 54 93 3.0 6.0 0.00 0.00 0.00 69 1018.2
20260830104513 55 138 1.0 7.0 0.00 0.00 0.00 68 1018.1
20260830103008 55 173 3.0 8.0 0.00 0.00 0.00 68 1018.2
20260830101531 55 169 3.0 8.0 0.00 0.00 0.00 66 1018.1
20260830100015 56 184 2.0 6.0 0.00 0.00 0.00 64 1018.0
20260830094527 56 113 3.0 7.0 0.00 0.00 0.00 63 1017.9
20260830093032 56 180 3.0 7.0 0.00 0.00 0.00 59 1017.8
20260830091523 56 156 2.0 8.0 0.00 0.00 0.00 58 1017.8
20260830090014 56 151 3.0 6.0 0.00 0.00 0.00 55 1017.7
20260830084519 56 157 1.0 7.0 0.00 0.00 0.00 55 1017.8
20260830083029 56 166 2.0 6.0 0.00 0.00 0.00 54 1017.9
20260830081534 56 136 0.0 8.0 0.00 0.00 0.00 54 1017.8
20260830080028 56 150 1.0 5.0 0.00 0.00 0.00 53 1017.7
20260830074503 57 172 2.0 7.0 0.00 0.00 0.00 52 1017.6
20260830073003 57 171 2.0 6.0 0.00 0.00 0.00 51 1017.6
20260830071502 58 171 0.0 4.0 0.00 0.00 0.00 49 1017.5
20260830070007 59 156 0.0 2.0 0.00 0.00 0.00 48 1017.5
20260830064509 59 173 2.0 5.0 0.00 0.00 0.00 48 1017.4
20260830063002 59 173 0.0 0.0 0.00 0.00 0.00 50 1017.4
20260830061508 59 167 0.0 0.0 0.00 0.00 0.00 50 1017.2
20260830060008 59 167 0.0 0.0 0.00 0.00 0.00 49 1017.3
20260830054504 60 167 0.0 0.0 0.00 0.00 0.00 48 1017.4
20260830053014 62 167 0.0 0.0 0.00 0.00 0.00 46 1017.3
20260830051504 62 302 0.0 0.0 0.00 0.00 0.00 46 1017.2
20260830050004 62 302 0.0 0.0 0.00 0.00 0.00 47 1017.3
20260830044507 63 302 0.0 0.0 0.00 0.00 0.00 47 1017.2
20260830043003 63 202 0.0 0.0 0.00 0.00 0.00 46 1017.3
20260830041506 64 207 0.0 0.0 0.00 0.00 0.00 46 1017.2
20260830040003 64 210 0.0 0.0 0.00 0.00 0.00 44 1017.1
20260830034504 65 172 0.0 0.0 0.00 0.00 0.00 44 1016.8